Theta_e
315 315 313 308 303 302 302 301 301 302 303 304 305 309 313 314 312 317 315 314 314 320 321 322 323 323 323 327 326 326 324 323 322 323 322 322 323 322 321 323 329 331 326 332 343
314 313 308 306 305 304 305 304 303 302 302 303 305 307 312 315 317 316 315 311 312 319 320 320 323 323 325 326 326 326 325 322 323 322 322 322 322 322 322 323 323 322 324 327 343
313 312 308 305 304 304 305 307 308 308 309 310 311 311 313 314 316 312 319 313 313 321 319 319 321 323 324 326 325 325 323 324 322 321 324 323 322 321 322 324 323 323 322 327 339
312 311 308 305 304 304 303 308 310 310 310 311 311 311 314 319 315 317 315 316 316 322 319 319 321 323 324 324 324 324 322 322 320 321 323 324 323 323 322 324 322 322 322 324 333
309 311 311 305 304 304 304 304 307 310 311 311 311 311 318 316 315 310 312 315 327 320 319 319 320 322 321 321 322 323 322 322 322 322 322 322 323 323 323 323 322 321 320 322 326
308 307 304 304 304 303 304 305 305 307 311 312 313 312 317 314 311 314 321 330 322 320 319 320 320 320 320 319 321 321 322 322 321 321 321 322 322 322 322 322 322 322 322 321 323
306 304 302 303 303 303 305 304 304 311 314 313 313 317 317 313 313 316 326 325 326 320 320 319 320 320 320 319 320 319 320 320 320 320 320 320 321 321 321 321 321 321 322 322 322
306 302 300 300 302 303 302 302 306 315 315 312 314 320 315 312 311 312 326 326 325 320 319 320 318 320 320 318 319 319 319 321 319 320 320 321 321 321 320 320 321 321 322 322 323
303 300 299 299 302 303 302 303 313 316 317 315 318 316 315 311 315 316 318 322 324 322 319 319 320 321 319 320 320 320 319 320 318 318 320 322 321 322 319 320 322 322 322 322 322
301 299 299 299 302 302 303 308 311 311 309 321 320 318 316 316 315 315 320 319 322 321 320 319 320 320 320 320 321 320 320 318 318 318 320 321 322 321 320 319 321 322 322 322 322
299 299 299 299 302 302 304 305 307 311 305 309 311 318 316 312 314 315 320 318 319 322 321 320 321 321 320 320 319 319 317 317 318 318 319 319 319 318 319 320 321 322 323 322 322
299 299 298 299 302 302 304 306 304 303 306 305 305 306 307 307 310 314 319 318 318 319 320 321 321 319 319 320 320 319 320 320 320 319 319 319 320 319 319 321 322 322 322 322 322
299 299 298 299 303 304 303 303 303 303 307 309 310 313 315 312 314 314 317 319 319 318 320 319 319 319 319 320 320 320 320 320 320 319 319 320 322 321 320 320 320 320 320 320 321
298 299 300 299 302 304 304 304 304 303 316 313 316 317 316 315 316 314 313 317 319 318 318 320 318 319 320 321 320 322 320 320 321 322 323 319 322 321 321 321 321 320 319 318 318
299 299 300 299 303 305 303 304 304 306 319 310 317 315 314 314 313 315 313 316 317 319 320 319 321 319 320 319 320 320 320 321 322 323 323 322 322 319 319 320 321 321 319 320 319
297 298 299 303 302 303 303 303 307 310 315 310 310 306 306 307 309 312 315 315 316 317 318 319 318 320 319 319 319 320 321 320 321 322 324 321 321 320 320 319 321 319 322 322 321
297 298 301 301 303 303 303 308 308 310 308 307 305 304 304 306 305 307 308 310 313 317 318 318 319 319 319 320 321 321 322 324 325 327 325 320 321 321 320 318 320 321 320 322 322
297 299 302 302 303 303 303 308 305 305 306 304 304 303 303 304 305 305 308 309 312 311 316 315 317 318 319 320 321 323 322 326 329 327 329 319 324 322 318 317 319 321 320 323 324
297 302 302 302 303 302 303 302 304 305 304 304 302 302 303 304 302 303 305 313 308 306 312 316 317 316 318 319 320 322 324 321 322 322 324 323 322 320 318 318 320 321 322 324 325
301 302 302 301 303 303 300 302 303 304 304 302 298 301 301 302 302 302 302 304 307 304 305 309 310 312 314 317 319 321 320 323 324 329 329 323 322 321 321 320 319 319 323 325 323
300 302 301 302 302 300 303 302 303 302 301 300 301 300 299 300 300 299 300 301 304 304 303 309 311 311 312 317 319 322 322 321 323 323 324 323 324 318 319 319 322 321 323 324 324
298 301 299 298 302 303 300 301 300 300 298 297 298 299 299 299 299 299 299 300 301 302 302 305 313 313 311 313 314 319 322 321 324 324 323 322 321 316 319 323 323 323 322 323 324
300 300 298 296 303 303 301 300 298 297 298 298 297 297 297 298 299 299 299 300 301 301 301 302 305 309 307 311 316 317 315 313 316 321 323 323 321 319 322 322 323 324 323 323 324
299 301 298 300 298 298 297 297 297 298 296 296 296 298 298 297 298 300 301 301 300 299 302 303 304 306 307 310 312 314 313 311 312 321 322 321 319 318 314 314 315 319 323 324 324
298 299 297 300 300 298 295 296 296 296 296 296 297 297 297 299 299 299 300 299 298 299 300 301 302 302 303 305 306 309 309 310 311 311 313 315 314 315 311 312 314 314 320 323 324
298 298 296 296 298 297 296 296 296 296 295 296 296 296 296 297 298 299 298 299 299 299 301 301 302 302 303 302 303 305 305 306 308 310 310 309 311 310 310 311 312 314 316 321 323
293 293 298 296 297 296 296 296 296 295 296 296 295 296 296 296 296 296 297 298 299 300 300 300 301 301 301 300 301 303 303 304 305 306 308 307 308 309 309 309 313 314 313 315 318
Wind_Speed
15 16 17 18 19 20 20 18 17 16 15 16 17 17 18 20 24 10 11 7 5 15 13 13 8 7 5 3 2 2 5 7 6 6 1 2 5 4 2 5 5 5 2 4 11
17 18 19 20 21 24 23 22 20 18 16 15 15 15 15 20 14 15 11 8 6 19 16 16 11 11 5 5 4 6 5 6 3 4 4 3 4 3 6 8 8 8 5 4 13
17 18 19 21 23 25 22 21 21 19 18 16 15 14 13 14 8 0 3 7 13 19 10 10 11 9 8 5 7 4 7 5 6 8 5 5 6 4 7 10 10 9 9 9 14
18 19 20 23 25 27 23 23 23 21 18 15 15 12 11 6 6 2 4 8 14 14 12 10 9 7 6 9 7 8 9 9 4 3 5 8 5 9 11 13 3 6 6 10 13
18 21 23 26 27 29 22 25 26 25 20 17 15 9 4 5 8 5 6 11 15 15 13 10 10 7 8 5 7 13 10 8 10 11 12 11 14 15 15 13 11 9 8 11 14
20 22 23 25 28 28 23 27 26 23 17 13 11 4 3 8 3 4 2 13 13 15 12 10 5 6 3 5 10 2 6 10 8 13 11 14 17 13 12 14 15 15 15 14 15
20 23 24 26 29 26 25 26 25 16 13 10 7 6 6 11 1 4 6 11 9 13 9 10 4 7 2 6 6 7 11 12 13 14 13 8 17 19 19 17 14 14 14 14 15
21 23 24 25 26 25 27 26 18 8 8 5 2 3 7 4 3 4 4 5 8 10 4 8 6 3 5 1 4 9 7 8 4 5 5 8 14 3 3 9 12 12 15 15 15
21 22 23 24 23 24 28 24 4 4 3 4 1 3 6 3 2 3 7 6 10 10 4 6 6 6 4 10 10 9 12 10 9 5 4 13 9 4 3 5 12 11 11 15 15
20 20 22 24 20 25 27 6 3 3 4 3 3 4 4 1 4 4 2 7 4 10 7 7 6 9 11 10 11 10 10 9 11 2 7 10 16 14 16 16 16 15 12 13 15
17 18 20 22 17 22 22 3 4 3 2 5 7 7 7 10 3 2 4 9 5 10 13 12 11 16 19 17 18 13 12 15 15 6 9 14 19 21 16 17 18 19 18 16 16
14 16 17 20 10 14 13 6 4 5 9 3 8 9 11 6 6 8 8 11 11 15 12 8 19 19 13 11 15 17 18 20 18 12 13 16 18 22 22 23 22 21 21 20 18
15 17 18 19 3 6 13 7 7 8 4 2 3 3 0 5 2 2 7 5 9 16 17 21 10 9 15 17 16 17 19 20 20 16 19 20 21 18 10 9 10 13 14 14 16
14 16 18 14 1 5 4 12 6 8 4 2 2 3 1 2 2 2 6 5 6 11 14 16 20 12 11 17 17 18 15 15 15 12 10 2 9 13 13 15 11 9 11 11 10
13 14 15 9 4 1 6 13 2 4 6 4 3 3 3 3 6 3 2 6 10 8 7 7 7 16 21 22 12 16 5 7 7 11 15 16 9 9 4 14 6 3 2 3 5
12 11 10 6 3 2 12 5 4 3 6 3 4 6 8 5 8 5 2 4 5 9 17 22 14 12 16 14 18 3 8 2 6 7 13 16 13 10 6 5 5 1 2 3 5
8 7 4 3 4 10 7 3 4 5 5 5 5 9 11 8 12 11 10 10 10 12 14 14 21 22 15 13 11 16 7 3 6 8 14 1 6 14 7 4 13 12 1 5 8
6 2 1 5 7 7 2 4 7 4 6 8 8 14 8 13 4 12 9 11 9 12 14 16 18 17 18 26 17 22 17 7 9 12 11 2 8 4 2 2 9 5 3 8 11
2 1 1 6 7 4 3 4 3 1 2 8 14 10 5 7 11 10 7 5 7 14 6 8 22 14 12 18 22 18 17 16 6 5 9 9 9 8 5 2 3 4 6 12 13
2 2 2 10 9 2 3 2 2 2 3 4 4 2 11 8 11 11 7 8 5 13 15 5 11 18 18 13 18 22 14 7 5 7 8 10 13 8 5 9 13 2 8 13 13
1 1 6 8 7 1 2 3 3 4 6 5 1 7 8 15 12 12 8 13 5 11 11 6 6 14 14 12 17 14 14 11 8 10 9 8 5 6 8 7 10 1 9 13 14
1 2 5 4 0 2 3 4 2 3 5 2 3 8 9 10 15 12 15 14 15 15 15 3 5 10 15 20 12 9 14 20 12 14 13 10 6 10 7 5 5 2 8 13 14
2 1 5 4 3 3 4 3 1 1 1 2 2 5 8 11 8 5 9 5 12 12 6 7 5 10 15 11 5 4 3 11 11 11 17 13 6 8 12 1 4 3 5 10 14
3 3 1 1 1 7 7 5 5 3 4 5 6 8 8 12 13 9 13 6 10 15 13 12 13 15 15 14 5 7 2 5 6 5 9 16 10 11 8 7 5 2 4 7 11
3 2 1 4 4 6 5 9 7 6 4 4 3 5 4 5 12 14 6 12 18 17 14 5 14 19 22 23 22 16 16 8 6 4 6 11 14 11 13 10 10 4 1 5 9
4 4 2 4 10 8 6 7 7 4 4 4 7 7 8 12 14 17 16 16 13 9 7 5 9 14 19 23 24 26 22 18 13 8 10 10 21 19 11 10 10 9 0 4 8
3 1 3 8 8 7 6 9 9 6 9 10 6 9 13 16 14 16 16 17 14 14 16 13 10 12 19 21 21 24 22 22 19 16 11 13 18 19 17 9 7 9 7 4 3
Wind_Direction
4 359 356 354 350 346 341 336 331 326 324 321 320 318 321 322 320 304 264 256 190 178 161 151 159 155 164 157 169 220 238 239 241 228 202 196 230 169 174 205 191 192 256 78 156
359 357 356 354 353 348 347 344 338 329 322 319 317 314 319 321 315 279 271 232 187 177 165 168 170 167 174 180 183 229 245 242 235 215 227 263 261 240 224 205 204 203 200 160 172
358 356 354 353 352 351 349 345 339 332 326 322 320 321 320 324 285 172 348 201 178 173 183 183 170 183 194 189 193 184 256 251 235 250 259 248 239 221 239 232 238 223 216 191 194
355 353 351 350 349 348 344 343 336 327 320 314 312 318 321 315 306 122 332 189 175 173 163 167 181 195 218 211 194 236 244 252 280 245 249 248 267 249 239 249 259 268 274 213 208
354 352 350 349 346 342 338 339 333 327 316 309 300 297 307 240 258 291 322 172 165 173 186 187 192 205 223 221 210 235 248 247 254 270 264 263 254 259 257 247 250 248 230 226 227
351 350 348 348 346 343 341 336 331 323 314 308 293 245 237 253 258 311 177 169 178 182 186 193 235 218 251 235 233 319 258 259 252 263 259 254 259 248 247 248 250 238 235 234 227
347 347 349 349 348 345 340 331 329 329 327 316 289 179 236 259 257 345 168 191 191 194 194 204 194 208 191 248 264 275 276 269 252 246 254 263 261 247 254 254 250 246 239 234 231
343 345 347 347 347 346 344 330 325 339 346 344 146 188 257 253 292 273 197 189 193 191 211 202 179 197 244 313 245 269 263 269 131 164 176 203 269 259 234 225 239 254 242 234 227
340 340 345 347 347 347 346 332 331 334 26 53 121 250 273 318 322 343 206 209 187 192 172 149 201 239 202 238 259 222 268 244 281 217 199 206 265 170 170 252 282 266 243 234 230
335 338 344 346 344 351 347 348 352 326 302 266 233 239 230 24 325 340 213 195 185 172 174 200 199 221 231 225 241 273 249 255 265 173 217 230 253 259 272 278 275 272 253 232 231
330 337 344 346 344 354 358 338 328 203 328 277 306 285 298 322 282 188 170 175 160 202 210 205 217 219 233 225 257 272 278 277 278 258 290 266 274 279 278 271 260 258 254 237 231
323 333 341 344 341 2 22 61 20 313 304 306 271 267 280 282 268 231 180 193 197 213 211 207 232 239 242 252 238 248 265 272 281 290 273 277 283 287 280 264 256 256 254 247 231
322 330 336 342 331 20 64 56 321 177 251 295 251 278 15 174 273 292 213 235 225 224 210 230 238 241 222 224 235 241 252 266 276 289 286 272 278 266 283 265 256 256 257 258 239
318 328 336 351 11 356 49 348 331 187 279 130 130 112 168 253 211 238 222 239 214 254 237 259 260 219 215 235 230 253 252 260 272 279 273 348 294 292 286 282 267 279 254 233 218
313 326 336 10 320 47 332 340 138 207 283 71 85 82 320 312 326 59 230 216 245 223 197 249 230 228 235 236 218 246 205 247 259 267 278 261 263 268 257 284 197 27 31 203 211
308 326 335 335 341 316 321 339 195 232 245 70 66 20 3 16 7 333 296 243 269 248 236 254 262 255 249 253 230 223 176 230 266 264 252 254 226 270 236 239 253 236 28 163 156
313 331 342 348 321 328 331 214 234 238 11 28 353 348 334 338 325 353 324 292 287 291 255 249 243 237 234 239 220 209 201 208 249 226 259 51 232 254 252 257 298 307 295 162 155
308 317 110 22 343 333 254 214 240 48 16 9 339 321 331 2 15 341 315 300 52 335 272 269 272 221 217 223 215 209 206 180 229 248 256 122 239 241 159 257 286 284 245 157 161
254 221 279 336 348 324 232 222 343 47 9 354 334 327 319 359 342 346 353 11 45 31 326 312 255 263 268 233 225 207 221 226 254 239 272 245 247 266 249 239 232 309 178 166 154
162 201 23 342 349 296 235 124 136 35 18 357 315 51 300 326 318 335 304 49 351 31 357 314 289 270 276 283 255 223 206 176 179 216 221 232 241 244 33 339 339 294 173 160 151
106 169 357 348 351 319 152 81 116 89 33 7 326 281 282 306 284 292 273 303 13 351 337 318 277 274 315 243 238 214 226 226 202 227 231 230 238 152 124 347 332 37 168 162 159
73 185 349 341 33 28 118 110 88 48 14 301 274 273 275 292 286 273 266 257 324 337 313 285 288 279 289 284 323 290 279 224 207 194 228 254 186 147 83 38 357 99 163 168 164
127 25 347 322 165 145 123 113 78 145 91 241 247 256 290 280 283 268 278 307 312 306 304 324 272 287 271 245 152 44 7 351 328 304 215 207 219 123 103 83 65 92 169 180 174
137 165 71 53 27 152 149 160 165 170 232 233 245 256 276 282 270 271 280 295 325 297 286 283 258 252 262 288 318 273 302 75 335 282 252 217 131 145 84 338 344 320 211 191 192
195 162 294 159 166 151 163 163 168 189 219 246 242 235 287 283 293 273 274 305 300 280 280 264 269 266 258 267 281 265 278 258 244 322 291 357 309 309 324 313 325 22 181 196 194
144 155 115 96 126 160 185 186 180 165 188 220 245 309 288 271 265 290 296 287 276 276 264 262 272 276 277 270 269 276 274 269 254 232 249 293 296 285 285 299 319 326 262 245 214
145 91 137 151 171 202 196 169 182 179 229 230 264 294 284 283 295 284 275 271 263 271 267 271 263 267 272 267 269 261 262 260 258 234 222 263 270 278 283 297 308 327 328 278 256